{"data":{"norad_id":43245,"epoch":"2026-05-24T20:37:32.471040Z","epoch_age_seconds":101394,"freshness":"FRESH","line1":"1 43245U 18029A   26144.85940360 -.00000087  00000+0  00000+0 0  9994","line2":"2 43245  54.2154 300.7633 0000951 119.7128 240.2737  1.86228170 55467","mean_motion":1.8622817,"eccentricity":9.51e-5,"inclination_deg":54.2154,"raan_deg":300.7633,"arg_perigee_deg":119.7128,"mean_anomaly_deg":240.2737,"bstar":0,"rev_number":5546,"period_min":773.24499295676,"perigee_km":21525.68037371,"apogee_km":21530.988184547,"semimajor_km":27906.471279128,"source":"CELESTRAK","updated_at":"2026-05-25T13:38:24.218042Z"}}